ELEKTRO-L 3

Last updated on Mon Jun 22 2026 00:02:55 GMT+0000 (Coordinated Universal Time)

1 44903U 19095A 26172.40511769 -.00000098 00000+0 00000+0 0 9991 2 44903 0.2692 81.6747 0001042 352.7589 56.9646 1.00271567 23752
UTC large
Height (km)
Speed (km/s)
/
Latitude / Longitude
Inclination (degrees)
Orbital Period (minutes)
Azimuth
Elevation
Range (km)
Doppler Factor

Next 0 passes for location: London (51.5072 / 0.1276)

No passes found over London.
ELEKTRO-L 3